Simultaneous Nadir Overpasses (SNOs) Predictions

Prediction of SNOs between LANDSAT-8 and METOP-B Satellite Orbit:

Table of predicted SNOs for the next 14.0 days since TLE Epoch: 10/25/2014
Index Date (LANDSAT-8) Time (LANDSAT-8) Lat,Lon (LANDSAT-8) SZA (LANDSAT-8 ) Date (METOP-B) Time (METOP-B) Lat,Lon (METOP-B) SZA (METOP-B ) Distance(km) Time Diff (sec)
1 10/25/2014 19:40:56 81.06, -76.25 95.64 10/25/2014 19:40:26 81.06, -76.28 95.62 0.73 30
2 10/25/2014 20:30:22 -81.09, 91.73 84.30 10/25/2014 20:31:05 -81.08, 91.58 84.30 2.69 43
3 10/28/2014 15:15:10 81.05, -9.98 96.57 10/28/2014 15:14:53 81.06, -9.84 96.58 2.71 17
4 10/28/2014 16:04:36 -81.08, 158.01 83.37 10/28/2014 16:05:32 -81.08, 158.06 83.34 1.13 56
5 10/31/2014 10:49:21 81.07, 56.81 97.54 10/31/2014 10:49:18 81.07, 56.86 97.55 1.03 3
6 10/31/2014 11:38:47 -81.10,-135.20 82.39 10/31/2014 11:39:57 -81.09,-135.20 82.37 0.62 70
7 11/03/2014 05:34:09 -81.04, -44.96 81.67 11/03/2014 05:33:06 -81.04, -44.98 81.70 0.43 63
8 11/03/2014 06:23:34 81.06, 123.04 98.40 11/03/2014 06:23:45 81.06, 123.07 98.42 0.85 11
9 11/06/2014 01:08:20 -81.06, 21.80 80.76 11/06/2014 01:07:31 -81.06, 21.90 80.77 1.78 49




NCC Satellite Simultaneous Nadir Overpasses (SNOs) Prediction Service
